Imperial, CA

2:02 AM PST on February 13, 2016 (GMT -0800)
Imperial County

Weather History for KIPL - July, 2013

Change the Weather History Date:

Thursday, July 18, 2013

  Actual Average Record
Temperature  
Mean Temperature 94 °F -  
Max Temperature 113 °F 106 °F 116 °F (2005)
Min Temperature 78 °F 78 °F 64 °F (1987)
Cooling Degree Days 30    
Growing Degree Days 44 (Base 50)    
Moisture  
Dew Point 36 °F    
Average Humidity 14    
Maximum Humidity 31    
Minimum Humidity 4    
Precipitation  
Precipitation 0.00 in - - ()
Sea Level Pressure  
Sea Level Pressure 29.75 in    
Wind  
Wind Speed 5 mph (WNW)    
Max Wind Speed 9 mph    
Max Gust Speed -    
Visibility 10 miles    
Events      
Averages and records for this station are not official NWS values.
T = Trace of Precipitation, MM = Missing Value Source: NWS Daily Summary

Daily Weather History Graph

Daily Weather History Graph

Search for Another Location

Airport or City:

Trip Planner

Search our weather history database for the weather conditions in past years. The results will help you decide how hot, cold, wet, or windy it might be!

Date:

Astronomy

Jul. 18, 2013 Rise Set
Actual Time 5:47 AM PDT 7:49 PM PDT
Civil Twilight 5:19 AM PDT 8:17 PM PDT
Nautical Twilight 4:45 AM PDT 8:51 PM PDT
Astronomical Twilight 4:09 AM PDT 9:27 PM PDT
Moon 3:52 PM PDT (7/18) 1:37 AM PDT (7/18)
Length of Visible Light 14h 58m
Length of Day
14h 02m
Waxing Gibbous, 78% of the Moon is Illuminated
Jul 18
Waxing Gibbous
Jul 22
Full
Jul 29
Last Quarter
Aug 6
New
Aug 14
First Quarter

Hourly Weather History & Observations

Time (PDT) Temp. Dew Point Humidity Pressure Visibility Wind Dir Wind Speed Gust Speed Precip Events Conditions
12:53 AM 84.9 °F 42.1 °F 22% 29.80 in 10.0 mi West 9.2 mph - N/A   Clear
1:53 AM 84.9 °F 39.0 °F 20% 29.80 in 10.0 mi NW 3.5 mph - N/A   Clear
2:53 AM 84.0 °F 41.0 °F 22% 29.78 in 10.0 mi NW 4.6 mph - N/A   Clear
3:53 AM 82.9 °F 39.0 °F 21% 29.78 in 10.0 mi North 4.6 mph - N/A   Clear
4:53 AM 78.1 °F 45.0 °F 31% 29.78 in 10.0 mi West 4.6 mph - N/A   Clear
5:53 AM 82.0 °F 39.9 °F 22% 29.79 in 10.0 mi WNW 8.1 mph - N/A   Clear
6:53 AM 79.0 °F 42.1 °F 27% 29.80 in 10.0 mi Calm Calm - N/A   Clear
7:53 AM 84.0 °F 48.0 °F 28% 29.82 in 10.0 mi Calm Calm - N/A   Clear
8:53 AM 93.0 °F 45.0 °F 19% 29.82 in 6.0 mi WNW 3.5 mph - N/A   Haze
9:53 AM 100.0 °F 28.0 °F 8% 29.82 in 10.0 mi Calm Calm - N/A   Clear
10:53 AM 102.9 °F 34.0 °F 9% 29.82 in 10.0 mi NW 3.5 mph - N/A   Clear
11:53 AM 105.1 °F 30.9 °F 8% 29.80 in 10.0 mi North 3.5 mph - N/A   Clear
12:53 PM 107.1 °F 28.0 °F 6% 29.78 in 10.0 mi Variable 4.6 mph - N/A   Clear
1:53 PM 108.0 °F 21.9 °F 5% 29.75 in 10.0 mi Variable 5.8 mph - N/A   Partly Cloudy
2:53 PM 109.9 °F 23.0 °F 5% 29.72 in 10.0 mi SW 3.5 mph - N/A   Overcast
3:53 PM 109.9 °F 25.0 °F 5% 29.69 in 10.0 mi WNW 4.6 mph - N/A   Mostly Cloudy
4:53 PM 111.0 °F 21.9 °F 4% 29.66 in 10.0 mi WNW 4.6 mph - N/A   Overcast
5:53 PM 109.9 °F 26.1 °F 5% 29.66 in 10.0 mi Calm Calm - N/A   Overcast
6:53 PM 108.0 °F 39.9 °F 10% 29.66 in 10.0 mi West 3.5 mph - N/A   Mostly Cloudy
7:53 PM 102.0 °F 39.0 °F 11% 29.66 in 10.0 mi West 3.5 mph - N/A   Mostly Cloudy
8:53 PM 100.0 °F 33.1 °F 10% 29.68 in 10.0 mi Calm Calm - N/A   Scattered Clouds
9:53 PM 98.1 °F 37.9 °F 12% 29.71 in 10.0 mi SSE 5.8 mph - N/A   Clear
10:53 PM 93.9 °F 44.1 °F 18% 29.72 in 10.0 mi South 5.8 mph - N/A   Clear
11:53 PM 93.9 °F 44.1 °F 18% 29.72 in 10.0 mi ESE 8.1 mph - N/A   Clear